QTR8PZ LRTR-LROP

Flight info

Callsign QTR8PZ
Flight time 0h 36m
Altitude 26000
Route DITAX DCT LAMIT DCT TOSVI
Aircraft B77W/H-SDE1E2E3FGHIJ2J3J4J5M1RWXY/LB1D1

Departure

Time 2026-04-21 13:13
Airport Timișoara Traian Vuia International Airport (LRTR)

Arrival

Time 2026-04-21 13:49
Airport Bucharest Henri Coandă International Airport (LROP)
Time Latitude Longitude Altitude Speed Heading
2026-04-21 12:51 45.81007 21.32383 357 ft 0 kts 313°
2026-04-21 13:08 45.81017 21.32373 339 ft 3 kts 328°
2026-04-21 13:08 45.81041 21.32356 356 ft 4 kts 333°
2026-04-21 13:08 45.81070 21.32335 353 ft 5 kts 315°
2026-04-21 13:09 45.81081 21.32285 353 ft 6 kts 289°
2026-04-21 13:09 45.81095 21.32226 349 ft 7 kts 289°
2026-04-21 13:09 45.81115 21.32148 356 ft 9 kts 289°
2026-04-21 13:09 45.81140 21.32060 348 ft 10 kts 298°
2026-04-21 13:10 45.81167 21.31971 352 ft 10 kts 291°
2026-04-21 13:10 45.81191 21.31876 349 ft 10 kts 289°
2026-04-21 13:10 45.81215 21.31778 356 ft 10 kts 289°
2026-04-21 13:10 45.81239 21.31679 351 ft 10 kts 290°
2026-04-21 13:11 45.81275 21.31592 354 ft 10 kts 324°
2026-04-21 13:11 45.81347 21.31594 351 ft 11 kts 18°
2026-04-21 13:11 45.81420 21.31631 353 ft 11 kts 21°
2026-04-21 13:11 45.81478 21.31663 350 ft 7 kts 22°
2026-04-21 13:12 45.81508 21.31707 352 ft 7 kts 86°
2026-04-21 13:12 45.81490 21.31774 353 ft 8 kts 111°
2026-04-21 13:12 45.81425 21.32026 349 ft 67 kts 110°
2026-04-21 13:12 45.81163 21.33073 355 ft 153 kts 109°
2026-04-21 13:13 45.80758 21.34714 780 ft 181 kts 106°
2026-04-21 13:13 45.80331 21.36457 1750 ft 186 kts 107°
2026-04-21 13:13 45.79923 21.38190 2895 ft 183 kts 107°
2026-04-21 13:13 45.79499 21.39932 3875 ft 191 kts 107°
2026-04-21 13:14 45.79010 21.41843 4488 ft 220 kts 108°
2026-04-21 13:14 45.78435 21.44078 4886 ft 258 kts 109°
2026-04-21 13:14 45.77787 21.46597 5679 ft 278 kts 109°
2026-04-21 13:14 45.77111 21.49218 6850 ft 283 kts 109°
2026-04-21 13:15 45.76423 21.51881 8025 ft 288 kts 109°
2026-04-21 13:15 45.75719 21.54610 9195 ft 294 kts 110°
2026-04-21 13:15 45.75001 21.57391 10303 ft 301 kts 110°
2026-04-21 13:15 45.74252 21.60293 11006 ft 324 kts 110°
2026-04-21 13:16 45.73428 21.63487 11325 ft 359 kts 110°
2026-04-21 13:16 45.72540 21.66924 12135 ft 375 kts 110°
2026-04-21 13:16 45.71623 21.70469 13249 ft 383 kts 110°
2026-04-21 13:16 45.70690 21.74067 14410 ft 388 kts 110°
2026-04-21 13:17 45.69746 21.77704 15542 ft 393 kts 110°
2026-04-21 13:17 45.68787 21.81392 16651 ft 398 kts 109°
2026-04-21 13:17 45.67813 21.85137 17729 ft 405 kts 109°
2026-04-21 13:17 45.66822 21.88940 18711 ft 412 kts 109°
2026-04-21 13:18 45.65807 21.92828 19495 ft 423 kts 109°
2026-04-21 13:18 45.64780 21.96760 20233 ft 433 kts 110°
2026-04-21 13:18 45.63708 22.00854 20846 ft 447 kts 110°
2026-04-21 13:18 45.62600 22.05075 21589 ft 457 kts 111°
2026-04-21 13:19 45.61479 22.09336 22586 ft 460 kts 111°
2026-04-21 13:19 45.60350 22.13620 23659 ft 461 kts 111°
2026-04-21 13:19 45.59216 22.17913 24585 ft 462 kts 111°
2026-04-21 13:19 45.58079 22.22212 25477 ft 464 kts 111°
2026-04-21 13:20 45.56933 22.26541 25979 ft 465 kts 111°
2026-04-21 13:20 45.55783 22.30878 26012 ft 468 kts 112°
2026-04-21 13:20 45.54632 22.35212 25995 ft 466 kts 112°
2026-04-21 13:20 45.53482 22.39524 25989 ft 464 kts 112°
2026-04-21 13:21 45.52348 22.43775 25989 ft 463 kts 112°
2026-04-21 13:21 45.51202 22.48064 25994 ft 464 kts 112°
2026-04-21 13:21 45.50047 22.52376 25983 ft 464 kts 112°
2026-04-21 13:21 45.48895 22.56674 25990 ft 464 kts 112°
2026-04-21 13:22 45.47744 22.60974 25982 ft 464 kts 112°
2026-04-21 13:22 45.46586 22.65284 25968 ft 465 kts 112°
2026-04-21 13:22 45.45423 22.69581 25984 ft 465 kts 112°
2026-04-21 13:22 45.44257 22.73881 25962 ft 466 kts 113°
2026-04-21 13:23 45.43088 22.78190 25941 ft 466 kts 113°
2026-04-21 13:23 45.41934 22.82447 25970 ft 467 kts 113°
2026-04-21 13:23 45.40760 22.86778 25982 ft 469 kts 113°
2026-04-21 13:23 45.39579 22.91114 25986 ft 470 kts 113°
2026-04-21 13:24 45.38394 22.95457 25954 ft 472 kts 114°
2026-04-21 13:24 45.37203 22.99824 25970 ft 473 kts 113°
2026-04-21 13:24 45.36012 23.04180 25937 ft 472 kts 113°
2026-04-21 13:24 45.34822 23.08526 25944 ft 471 kts 114°
2026-04-21 13:25 45.33629 23.12867 25967 ft 471 kts 114°
2026-04-21 13:25 45.32436 23.17205 25973 ft 472 kts 114°
2026-04-21 13:25 45.31238 23.21557 25942 ft 473 kts 114°
2026-04-21 13:25 45.30065 23.25843 25972 ft 472 kts 114°
2026-04-21 13:26 45.28862 23.30185 25977 ft 472 kts 114°
2026-04-21 13:26 45.27654 23.34525 25969 ft 473 kts 114°
2026-04-21 13:26 45.26445 23.38868 25942 ft 473 kts 114°
2026-04-21 13:26 45.25236 23.43211 25953 ft 474 kts 114°
2026-04-21 13:27 45.24024 23.47556 25955 ft 474 kts 114°
2026-04-21 13:27 45.22811 23.51905 25897 ft 473 kts 114°
2026-04-21 13:27 45.21604 23.56233 25953 ft 470 kts 114°
2026-04-21 13:27 45.20400 23.60537 25957 ft 467 kts 114°
2026-04-21 13:28 45.19200 23.64817 25959 ft 468 kts 114°
2026-04-21 13:28 45.17997 23.69098 25950 ft 468 kts 114°
2026-04-21 13:28 45.16789 23.73386 25933 ft 469 kts 115°
2026-04-21 13:28 45.15580 23.77670 25925 ft 466 kts 115°
2026-04-21 13:29 45.14374 23.81942 25644 ft 465 kts 115°
2026-04-21 13:29 45.13187 23.86138 25255 ft 463 kts 115°
2026-04-21 13:29 45.11991 23.90358 24840 ft 460 kts 115°
2026-04-21 13:29 45.10801 23.94553 24433 ft 458 kts 115°
2026-04-21 13:30 45.09617 23.98717 24008 ft 455 kts 115°
2026-04-21 13:30 45.08432 24.02874 23609 ft 453 kts 115°
2026-04-21 13:30 45.07256 24.06994 23104 ft 450 kts 115°
2026-04-21 13:30 45.06084 24.11093 22681 ft 446 kts 115°
2026-04-21 13:31 45.04924 24.15146 22247 ft 442 kts 115°
2026-04-21 13:31 45.03774 24.19153 21848 ft 438 kts 115°
2026-04-21 13:31 45.02633 24.23128 21418 ft 434 kts 115°
2026-04-21 13:31 45.01513 24.27021 21011 ft 431 kts 115°
2026-04-21 13:32 45.00386 24.30929 20614 ft 428 kts 115°
2026-04-21 13:32 44.99268 24.34798 20201 ft 425 kts 114°
2026-04-21 13:32 44.98151 24.38657 19779 ft 421 kts 114°
2026-04-21 13:32 44.97049 24.42467 19382 ft 418 kts 114°
2026-04-21 13:33 44.95948 24.46262 18974 ft 415 kts 114°
2026-04-21 13:33 44.94855 24.50028 18560 ft 412 kts 114°
2026-04-21 13:33 44.93773 24.53749 18138 ft 408 kts 114°
2026-04-21 13:33 44.92696 24.57442 17671 ft 404 kts 114°
2026-04-21 13:34 44.91633 24.61089 17249 ft 400 kts 114°
2026-04-21 13:34 44.90581 24.64691 16861 ft 394 kts 114°
2026-04-21 13:34 44.89555 24.68199 16441 ft 390 kts 114°
2026-04-21 13:34 44.88526 24.71711 16037 ft 385 kts 114°
2026-04-21 13:35 44.87507 24.75187 15626 ft 381 kts 114°
2026-04-21 13:35 44.86495 24.78631 15238 ft 377 kts 114°
2026-04-21 13:35 44.85497 24.82022 14854 ft 373 kts 114°
2026-04-21 13:35 44.84504 24.85389 14464 ft 370 kts 114°
2026-04-21 13:36 44.83522 24.88720 14071 ft 366 kts 113°
2026-04-21 13:36 44.82546 24.92024 13681 ft 363 kts 113°
2026-04-21 13:36 44.81578 24.95296 13248 ft 360 kts 113°
2026-04-21 13:36 44.80618 24.98540 12842 ft 357 kts 113°
2026-04-21 13:37 44.79680 25.01706 12451 ft 353 kts 113°
2026-04-21 13:37 44.78737 25.04882 12049 ft 350 kts 113°
2026-04-21 13:37 44.77804 25.08026 11679 ft 347 kts 113°
2026-04-21 13:37 44.76877 25.11143 11304 ft 344 kts 113°
2026-04-21 13:38 44.75958 25.14227 10921 ft 341 kts 113°
2026-04-21 13:38 44.75041 25.17301 10545 ft 339 kts 113°
2026-04-21 13:38 44.74136 25.20345 10270 ft 333 kts 113°
2026-04-21 13:38 44.73258 25.23307 10136 ft 323 kts 113°
2026-04-21 13:39 44.72402 25.26191 9970 ft 314 kts 113°
2026-04-21 13:39 44.71570 25.28991 9753 ft 304 kts 113°
2026-04-21 13:39 44.70764 25.31696 9322 ft 298 kts 113°
2026-04-21 13:39 44.69963 25.34384 8977 ft 297 kts 113°
2026-04-21 13:40 44.69166 25.37057 8645 ft 295 kts 113°
2026-04-21 13:40 44.68373 25.39711 8316 ft 294 kts 113°
2026-04-21 13:40 44.67592 25.42322 7989 ft 293 kts 113°
2026-04-21 13:40 44.66805 25.44952 7681 ft 291 kts 113°
2026-04-21 13:41 44.66020 25.47574 7356 ft 290 kts 113°
2026-04-21 13:41 44.65237 25.50184 7047 ft 288 kts 113°
2026-04-21 13:41 44.64476 25.52721 6733 ft 279 kts 113°
2026-04-21 13:41 44.63725 25.55221 6425 ft 277 kts 114°
2026-04-21 13:42 44.62976 25.57712 6117 ft 277 kts 113°
2026-04-21 13:42 44.62225 25.60206 5810 ft 276 kts 114°
2026-04-21 13:42 44.61479 25.62683 5487 ft 275 kts 114°
2026-04-21 13:42 44.60732 25.65156 5193 ft 274 kts 114°
2026-04-21 13:43 44.59998 25.67590 4887 ft 273 kts 114°
2026-04-21 13:43 44.59262 25.70024 4588 ft 271 kts 114°
2026-04-21 13:43 44.58529 25.72448 4263 ft 266 kts 114°
2026-04-21 13:43 44.57812 25.74820 4103 ft 260 kts 114°
2026-04-21 13:44 44.57115 25.77120 3966 ft 252 kts 113°
2026-04-21 13:44 44.56440 25.79342 3843 ft 243 kts 113°
2026-04-21 13:44 44.55800 25.81483 3729 ft 230 kts 109°
2026-04-21 13:44 44.55647 25.83635 3594 ft 219 kts 80°
2026-04-21 13:45 44.55935 25.85709 3413 ft 213 kts 82°
2026-04-21 13:45 44.56106 25.87765 3148 ft 211 kts 84°
2026-04-21 13:45 44.56248 25.89727 3055 ft 196 kts 84°
2026-04-21 13:45 44.56387 25.91597 2797 ft 186 kts 84°
2026-04-21 13:46 44.56518 25.93330 2534 ft 170 kts 83°
2026-04-21 13:46 44.56638 25.94907 2308 ft 153 kts 83°
2026-04-21 13:46 44.56742 25.96287 2092 ft 132 kts 83°
2026-04-21 13:46 44.56836 25.97536 1961 ft 131 kts 83°
2026-04-21 13:47 44.56935 25.98829 1778 ft 134 kts 83°
2026-04-21 13:47 44.57032 26.00107 1553 ft 129 kts 82°
2026-04-21 13:47 44.57129 26.01382 1409 ft 135 kts 82°
2026-04-21 13:47 44.57232 26.02701 1217 ft 136 kts 82°
2026-04-21 13:48 44.57323 26.04001 961 ft 135 kts 82°
2026-04-21 13:48 44.57422 26.05286 824 ft 132 kts 81°
2026-04-21 13:48 44.57521 26.06548 607 ft 128 kts 82°
2026-04-21 13:48 44.57609 26.07781 457 ft 126 kts 82°
2026-04-21 13:49 44.57701 26.08985 330 ft 119 kts 84°
2026-04-21 13:49 44.57785 26.10003 323 ft 89 kts 86°
2026-04-21 13:49 44.57831 26.10640 321 ft 31 kts 84°
2026-04-21 13:49 44.57821 26.10931 317 ft 26 kts 107°
2026-04-21 13:50 44.57767 26.11113 316 ft 8 kts 114°
2026-04-21 13:50 44.57741 26.11163 317 ft 6 kts 143°
2026-04-21 13:50 44.57705 26.11135 317 ft 7 kts 240°
2026-04-21 13:50 44.57691 26.11067 318 ft 7 kts 259°
2026-04-21 13:51 44.57684 26.10987 319 ft 14 kts 263°
2026-04-21 13:51 44.57665 26.10753 319 ft 27 kts 264°
2026-04-21 13:51 44.57645 26.10491 325 ft 27 kts 264°
2026-04-21 13:51 44.57632 26.10318 324 ft 27 kts 264°
2026-04-21 13:52 44.57613 26.10057 325 ft 27 kts 264°
2026-04-21 13:52 44.57593 26.09797 322 ft 27 kts 264°
2026-04-21 13:52 44.57574 26.09535 323 ft 27 kts 264°
2026-04-21 13:52 44.57553 26.09274 319 ft 27 kts 263°
2026-04-21 13:53 44.57534 26.09013 323 ft 27 kts 264°
2026-04-21 13:53 44.57518 26.08806 326 ft 18 kts 264°
2026-04-21 13:53 44.57508 26.08669 325 ft 13 kts 264°
2026-04-21 13:53 44.57499 26.08550 325 ft 8 kts 264°
2026-04-21 13:54 44.57474 26.08478 325 ft 9 kts 209°
2026-04-21 13:54 44.57403 26.08477 323 ft 11 kts 173°
2026-04-21 13:54 44.57317 26.08491 321 ft 13 kts 174°
2026-04-21 13:54 44.57231 26.08454 320 ft 15 kts 249°
2026-04-21 13:55 44.57228 26.08414 320 ft 4 kts 267°
2026-04-21 13:55 44.57225 26.08367 319 ft 1 kts 259°
2026-04-21 13:55 44.57219 26.08350 319 ft 3 kts 240°
2026-04-21 13:55 44.57204 26.08327 318 ft 4 kts 224°
2026-04-21 13:56 44.57180 26.08297 321 ft 5 kts 220°
2026-04-21 13:56 44.57146 26.08258 318 ft 7 kts 219°
2026-04-21 13:56 44.57132 26.08242 318 ft 0 kts 219°